Regional Weather Roundup
Issued by NWS Raleigh/Durham, NC

Home | Current Version | Previous Version | Text Only | Print | Product List | Glossary On
Versions: 1 2 3 4 5 6 7 8 9 10 11 12 13 14 15 16 17 18 19 20 21 22 23 24 25 26 27 28 29 30 31 32 33 34 35 36 37 38 39 40 41 42 43 44 45 46 47 48 49 50
000
ASUS42 KRAH 040710
RWRRAH
NORTH CAROLINA WEATHER ROUNDUP
NATIONAL WEATHER SERVICE RALEIGH NC
300 AM EDT MON MAY 04 2015

NOTE: "FAIR" INDICATES FEW OR NO CLOUDS BELOW 12,000 FEET WITH NO
SIGNIFICANT WEATHER AND/OR OBSTRUCTIONS TO VISIBILITY.

NCZ001-053-055-056-065-067-040800-
WESTERN NORTH CAROLINA

CITY           SKY/WX    TMP DP  RH WIND       PRES   REMARKS
ASHEVILLE      CLEAR     53  48  83 CALM      30.24F
JEFFERSON      PTCLDY    56  42  59 CALM      30.26S
MORGANTON      PTCLDY    52  51  95 CALM      30.26S
HICKORY        PTCLDY    61  50  67 S3        30.20F
RUTHERFORDTON  CLOUDY    56  51  85 CALM      30.22F
MOUNT AIRY     CLOUDY    60  51  73 CALM      30.24S
BOONE          PTCLDY    51  44  77 CALM      30.27F
$$

NCZ021-022-025-041-071-084-088-040800-
CENTRAL NORTH CAROLINA

CITY           SKY/WX    TMP DP  RH WIND       PRES   REMARKS
CHARLOTTE      PTCLDY    60  51  72 S7        30.22F
GREENSBORO     PTCLDY    60  50  69 S8        30.22S
WINSTON-SALEM  CLOUDY    64  49  57 S6        30.23S
RALEIGH-DURHAM PTCLDY    57  51  80 SW5       30.24F
FORT BRAGG     PTCLDY    60  52  75 CALM      30.23S
FAYETTEVILLE   MOCLDY    57  50  77 CALM      30.24S
BURLINGTON     MOCLDY    60  50  69 CALM      30.23S
LAURINBURG     MOCLDY    57  53  86 CALM      30.25S
$$

NCZ011-015-027-028-043-044-047-080-103-040800-
NORTHEASTERN NORTH CAROLINA

CITY           SKY/WX    TMP DP  RH WIND       PRES   REMARKS
ROCKY MT-WILSO CLEAR     53  48  83 CALM      30.25R
GREENVILLE     CLEAR     55  50  82 W5        30.26S
WASHINGTON     CLEAR     57  51  80 CALM      30.25S
ELIZABETH CITY CLEAR     58  48  69 SW9       30.24R
MANTEO         MOCLDY    60  51  72 CALM      30.25S
CAPE HATTERAS  MOCLDY    60  56  86 W5        30.25S
$$

NCZ078-087-090-091-093-098-101-040800-
SOUTHEASTERN NORTH CAROLINA

CITY           SKY/WX    TMP DP  RH WIND       PRES   REMARKS
LUMBERTON      MOCLDY    53  50  89 CALM      30.24S
GOLDSBORO      CLEAR     58  49  73 CALM      30.23S
KINSTON        CLEAR     53  49  89 CALM      30.26S
KENANSVILLE    CLEAR     49  47  95 CALM      30.27S
NEW BERN       CLEAR     56  52  86 CALM      30.26S
CHERRY POINT   CLEAR     53  51  93 CALM      30.26F
BEAUFORT       CLEAR     56  56 100 CALM      30.25F
JACKSONVILLE   CLEAR     54  51  90 CALM      30.25S
WILMINGTON     CLEAR     54  52  93 CALM      30.24F
$$




USA.gov is the U.S. government's official web portal to all federal, state and local government web resources and services.